This is the latest recevied weather packets stored in our database for station/object LX0APE-4. If no packets are shown the sender has not sent any weather packets the latest 10 day(s).
| Time | Temp. | Humidity | Pressure | Rain* | Wind** | Luminosity | Snow |
|---|---|---|---|---|---|---|---|
| 1777576623 | 14.44° C | 24% | 5020.5 hPa | 0 mm | - | - | - |
| 1777576323 | 14.44° C | 24% | 5020.5 hPa | 0 mm | - | - | - |
| 1777576023 | 14.44° C | 24% | 5020.5 hPa | 0 mm | - | - | - |
| 1777575723 | 15° C | 22% | 5020.4 hPa | 0 mm | - | - | - |
| 1777575423 | 15° C | 22% | 5020.2 hPa | 0 mm | - | - | - |
| 1777575123 | 15° C | 22% | 5020.3 hPa | 0 mm | - | - | - |
| 1777574823 | 15.56° C | 22% | 5020.3 hPa | 0 mm | - | - | - |
| 1777574523 | 15.56° C | 21% | 5020.1 hPa | 0 mm | - | - | - |
| 1777574223 | 16.11° C | 21% | 5020.1 hPa | 0 mm | - | - | - |
| 1777573923 | 16.67° C | 20% | 5020.1 hPa | 0 mm | - | - | - |
| 1777573623 | 17.78° C | 20% | 5019.9 hPa | 0 mm | - | - | - |
| 1777573323 | 18.33° C | 19% | 5019.8 hPa | 0 mm | - | - | - |
| 1777573023 | 17.78° C | 20% | 5019.8 hPa | 0 mm | - | - | - |
| 1777572723 | 17.78° C | 19% | 5019.8 hPa | 0 mm | - | - | - |
| 1777572435 | 18.33° C | 19% | 5019.7 hPa | 0 mm | - | - | - |
| 1777572423 | 18.33° C | 19% | 5019.7 hPa | 0 mm | - | - | - |
| 1777572123 | 19.44° C | 18% | 5019.8 hPa | 0 mm | - | - | - |
| 1777571823 | 20.56° C | 18% | 5019.8 hPa | 0 mm | - | - | - |
| 1777571523 | 20° C | 18% | 5019.6 hPa | 0 mm | - | - | - |
| 1777571223 | 20° C | 17% | 5019.6 hPa | 0 mm | - | - | - |
| 1777570923 | 21.67° C | 16% | 5019.6 hPa | 0 mm | - | - | - |
| 1777570623 | 23.89° C | 15% | 5019.7 hPa | 0 mm | - | - | - |
| 1777570323 | 24.44° C | 15% | 5019.7 hPa | 0 mm | - | - | - |
| 1777570023 | 25° C | 14% | 5019.8 hPa | 0 mm | - | - | - |
| 1777569723 | 25.56° C | 15% | 5019.8 hPa | 0 mm | - | - | - |
* Rain latest hour (hover to see other rain measurements)
** Current wind speed in m/s (hover to see current wind gust speed)